GW3962 Weather Reports


Display with metric or nautical units.
time (UTC)temp
F
wind
direction
speed
MPH
gust
MPH
rain 1hr
in
rain 24hr
in
rain mn
in
humidity
%
barometer
mb
20260902042019 86 216 4.0 5.0 0.00 0.00 0.00 62 1016.3
20260902041514 86 206 3.0 5.0 0.00 0.00 0.00 62 1016.3
20260902041009 87 205 2.0 2.0 0.00 0.00 0.00 61 1015.9
20260902040509 87 185 4.0 5.0 0.00 0.00 0.00 60 1015.9
20260902040008 87 166 4.0 5.0 0.00 0.00 0.00 60 1016.2
20260902035502 87 103 3.0 3.0 0.00 0.00 0.00 61 1016.2
20260902034956 87 120 4.0 6.0 0.00 0.00 0.00 60 1015.8
20260902034451 87 181 3.0 3.0 0.00 0.00 0.00 60 1015.9
20260902033950 87 217 3.0 3.0 0.00 0.00 0.00 60 1015.7
20260902033450 87 167 2.0 3.0 0.00 0.00 0.00 60 1015.6
20260902032948 87 189 3.0 3.0 0.00 0.00 0.00 59 1015.8
20260902032443 87 129 3.0 5.0 0.00 0.00 0.00 59 1015.5
20260902031933 88 151 4.0 6.0 0.00 0.00 0.00 59 1015.6
20260902031428 88 212 2.0 3.0 0.00 0.00 0.00 59 1015.5
20260902030924 88 193 4.0 6.0 0.00 0.00 0.00 58 1015.4
20260902030419 88 219 4.0 5.0 0.00 0.00 0.00 58 1015.2
20260902025917 88 231 3.0 5.0 0.00 0.00 0.00 58 1015.3
20260902025413 88 181 4.0 5.0 0.00 0.00 0.00 57 1015.1
20260902024908 88 193 4.0 7.0 0.00 0.00 0.00 57 1015.0
20260902024403 89 195 3.0 3.0 0.00 0.00 0.00 56 1015.0
20260902023858 89 203 4.0 6.0 0.00 0.00 0.00 56 1015.2
20260902023354 89 124 3.0 3.0 0.00 0.00 0.00 55 1015.0
20260902022853 89 137 4.0 6.0 0.00 0.00 0.00 54 1014.8
20260902022348 89 127 8.0 10.0 0.00 0.00 0.00 54 1014.6
20260902021844 89 162 4.0 5.0 0.00 0.00 0.00 53 1014.6
20260902021339 90 126 5.0 6.0 0.00 0.00 0.00 52 1014.5
20260902020835 90 282 3.0 3.0 0.00 0.00 0.00 52 1014.4
20260902020331 90 107 5.0 6.0 0.00 0.00 0.00 51 1014.4
20260902015826 90 146 3.0 5.0 0.00 0.00 0.00 50 1014.5
20260902015322 91 117 4.0 6.0 0.00 0.00 0.00 50 1014.1
20260902014817 91 92 4.0 5.0 0.00 0.00 0.00 49 1014.4
20260902014314 91 6 2.0 2.0 0.00 0.00 0.00 49 1014.2
20260902013812 91 87 2.0 3.0 0.00 0.00 0.00 49 1014.1
20260902013308 91 133 4.0 6.0 0.00 0.00 0.00 49 1014.1
20260902012803 91 81 5.0 6.0 0.00 0.00 0.00 48 1013.8
20260902012259 91 105 3.0 6.0 0.00 0.00 0.00 49 1013.8
20260902011754 91 128 5.0 7.0 0.00 0.00 0.00 49 1014.1
20260902011254 92 112 5.0 8.0 0.00 0.00 0.00 48 1013.9
20260902010748 92 94 5.0 6.0 0.00 0.00 0.00 48 1013.8
20260902010244 92 339 3.0 5.0 0.00 0.00 0.00 47 1013.8
20260902005742 92 111 2.0 2.0 0.00 0.00 0.00 47 1013.8
20260902005237 93 90 4.0 5.0 0.00 0.00 0.00 46 1013.9
20260902004737 93 67 4.0 7.0 0.00 0.00 0.00 45 1013.7
20260902004232 93 332 1.0 1.0 0.00 0.00 0.00 45 1014.1
20260902003727 93 38 3.0 3.0 0.00 0.00 0.00 45 1013.9
20260902003222 93 75 4.0 7.0 0.00 0.00 0.00 45 1014.0
20260902002713 94 90 5.0 6.0 0.00 0.00 0.00 45 1014.0
20260902002212 94 94 3.0 7.0 0.00 0.00 0.00 45 1014.0
20260902001708 94 98 4.0 5.0 0.00 0.00 0.00 45 1014.0
20260902001208 94 48 4.0 6.0 0.00 0.00 0.00 45 1014.1
20260902000703 95 63 7.0 9.0 0.00 0.00 0.00 44 1014.0
20260902000158 95 95 5.0 7.0 0.00 0.00 0.00 44 1014.0
20260901235657 95 59 3.0 5.0 0.00 0.00 0.00 45 1014.1
20260901235153 95 72 5.0 7.0 0.00 0.00 0.00 44 1013.7
20260901234652 95 90 3.0 7.0 0.00 0.00 0.00 44 1014.1
20260901234147 96 102 6.0 8.0 0.00 0.00 0.00 44 1013.9
20260901233642 96 84 2.0 3.0 0.00 0.00 0.00 44 1013.9
20260901233138 95 247 1.0 2.0 0.00 0.00 0.00 44 1014.0
20260901232638 96 119 7.0 10.0 0.00 0.00 0.00 44 1014.0
20260901232133 95 80 7.0 8.0 0.00 0.00 0.00 43 1014.1
20260901231630 95 42 1.0 2.0 0.00 0.00 0.00 44 1014.0
20260901231126 95 94 8.0 10.0 0.00 0.00 0.00 44 1013.8
20260901230621 95 128 5.0 7.0 0.00 0.00 0.00 44 1013.9
20260901230115 95 82 6.0 11.0 0.00 0.00 0.00 44 1014.0
20260901225611 96 106 9.0 10.0 0.00 0.00 0.00 43 1013.8
20260901225111 97 84 6.0 7.0 0.00 0.00 0.00 41 1013.9
20260901224607 98 57 6.0 8.0 0.00 0.00 0.00 41 1013.7
20260901224103 99 35 3.0 3.0 0.00 0.00 0.00 41 1014.1
20260901223558 97 317 1.0 1.0 0.00 0.00 0.00 42 1013.8
20260901223053 97 235 3.0 3.0 0.00 0.00 0.00 40 1013.7
20260901222549 98 314 2.0 2.0 0.00 0.00 0.00 40 1014.0
20260901222045 97 303 1.0 1.0 0.00 0.00 0.00 41 1014.1
20260901221541 97 89 6.0 8.0 0.00 0.00 0.00 41 1014.2
20260901221036 98 186 6.0 9.0 0.00 0.00 0.00 41 1013.8
20260901220536 98 62 3.0 5.0 0.00 0.00 0.00 41 1014.1
20260901220035 98 25 3.0 3.0 0.00 0.00 0.00 41 1014.0
20260901215532 99 59 7.0 9.0 0.00 0.00 0.00 40 1013.9
20260901215027 98 109 3.0 5.0 0.00 0.00 0.00 40 1014.1
20260901214526 98 355 2.0 3.0 0.00 0.00 0.00 40 1013.9
20260901214020 100 133 3.0 5.0 0.00 0.00 0.00 41 1014.1
20260901213519 99 77 3.0 5.0 0.00 0.00 0.00 40 1014.0
20260901213014 98 349 3.0 5.0 0.00 0.00 0.00 40 1014.1
20260901212509 98 88 4.0 5.0 0.00 0.00 0.00 40 1014.1
20260901212005 99 56 3.0 5.0 0.00 0.00 0.00 39 1014.3
20260901211500 98 214 3.0 5.0 0.00 0.00 0.00 42 1014.2
20260901210956 99 203 6.0 9.0 0.00 0.00 0.00 41 1014.4
20260901210446 98 64 3.0 3.0 0.00 0.00 0.00 40 1014.4
20260901205942 98 72 4.0 6.0 0.00 0.00 0.00 41 1014.6
20260901205436 96 86 2.0 3.0 0.00 0.00 0.00 43 1014.6
20260901204931 96 103 3.0 3.0 0.00 0.00 0.00 44 1014.8
20260901204428 97 132 7.0 10.0 0.00 0.00 0.00 42 1014.8
20260901203927 100 68 4.0 5.0 0.00 0.00 0.00 39 1014.8
20260901203423 97 25 4.0 6.0 0.00 0.00 0.00 43 1014.8
20260901202918 98 309 3.0 5.0 0.00 0.00 0.00 42 1014.9
20260901202414 99 258 4.0 6.0 0.00 0.00 0.00 42 1015.0
20260901201909 98 133 4.0 6.0 0.00 0.00 0.00 42 1014.9
20260901201408 98 46 3.0 5.0 0.00 0.00 0.00 40 1015.3
20260901200902 96 65 3.0 3.0 0.00 0.00 0.00 43 1015.2
20260901200357 97 100 4.0 6.0 0.00 0.00 0.00 43 1015.2
20260901195856 96 74 7.0 8.0 0.00 0.00 0.00 45 1015.3
20260901195349 95 55 4.0 5.0 0.00 0.00 0.00 44 1015.5
20260901194844 95 110 7.0 8.0 0.00 0.00 0.00 45 1015.4
20260901194339 95 82 5.0 7.0 0.00 0.00 0.00 46 1015.3
20260901193836 97 27 5.0 6.0 0.00 0.00 0.00 45 1015.5
20260901193334 99 69 6.0 9.0 0.00 0.00 0.00 42 1015.6
20260901192829 97 92 5.0 6.0 0.00 0.00 0.00 44 1015.5
20260901192325 95 191 3.0 3.0 0.00 0.00 0.00 46 1015.7
20260901191821 96 302 2.0 2.0 0.00 0.00 0.00 46 1015.9
20260901191316 96 6 1.0 1.0 0.00 0.00 0.00 44 1015.9
20260901190812 96 35 2.0 3.0 0.00 0.00 0.00 44 1016.1
20260901190311 97 348 8.0 10.0 0.00 0.00 0.00 45 1016.2
20260901185810 96 56 2.0 3.0 0.00 0.00 0.00 46 1016.2
20260901185309 96 107 5.0 8.0 0.00 0.00 0.00 45 1016.4
20260901184805 94 259 5.0 6.0 0.00 0.00 0.00 47 1016.4
20260901184300 94 214 5.0 6.0 0.00 0.00 0.00 48 1016.5
20260901183755 95 81 4.0 5.0 0.00 0.00 0.00 46 1016.4
20260901183255 94 308 2.0 2.0 0.00 0.00 0.00 46 1016.8
20260901182751 94 99 6.0 6.0 0.00 0.00 0.00 47 1016.9
20260901182250 96 112 5.0 7.0 0.00 0.00 0.00 47 1016.7
20260901181745 95 100 1.0 2.0 0.00 0.00 0.00 48 1016.8
20260901181240 95 342 1.0 1.0 0.00 0.00 0.00 48 1017.0
20260901180739 93 220 7.0 8.0 0.00 0.00 0.00 50 1016.9
20260901180238 96 18 1.0 1.0 0.00 0.00 0.00 48 1017.0
20260901175737 94 288 4.0 7.0 0.00 0.00 0.00 49 1016.9
20260901175232 93 57 3.0 3.0 0.00 0.00 0.00 51 1017.2
20260901174727 94 68 4.0 6.0 0.00 0.00 0.00 50 1017.4
20260901174223 93 134 3.0 3.0 0.00 0.00 0.00 51 1017.2
20260901173719 93 349 4.0 5.0 0.00 0.00 0.00 53 1017.5
20260901173213 95 85 8.0 9.0 0.00 0.00 0.00 51 1017.6
20260901172710 93 131 3.0 5.0 0.00 0.00 0.00 50 1017.5
20260901172208 92 235 2.0 2.0 0.00 0.00 0.00 53 1017.6
20260901171707 93 100 6.0 7.0 0.00 0.00 0.00 53 1017.8
20260901171201 92 146 3.0 3.0 0.00 0.00 0.00 55 1017.7
20260901170700 92 352 2.0 3.0 0.00 0.00 0.00 55 1017.8
20260901170155 93 42 3.0 5.0 0.00 0.00 0.00 54 1017.9
20260901165654 93 12 1.0 1.0 0.00 0.00 0.00 53 1018.0
20260901165149 91 302 1.0 1.0 0.00 0.00 0.00 55 1017.9
20260901164645 92 286 1.0 2.0 0.00 0.00 0.00 55 1017.9
20260901164140 91 296 1.0 2.0 0.00 0.00 0.00 55 1018.0
20260901163635 90 129 3.0 5.0 0.00 0.00 0.00 58 1018.0
20260901163134 91 137 7.0 8.0 0.00 0.00 0.00 55 1018.1
20260901162630 90 305 1.0 1.0 0.00 0.00 0.00 58 1018.0
20260901162124 90 254 3.0 3.0 0.00 0.00 0.00 59 1018.2
20260901161623 89 95 2.0 2.0 0.00 0.00 0.00 60 1018.4
20260901161122 88 252 1.0 2.0 0.00 0.00 0.00 62 1018.2
20260901160619 89 319 1.0 1.0 0.00 0.00 0.00 61 1018.2
20260901160114 88 157 2.0 2.0 0.00 0.00 0.00 61 1018.4
20260901155613 89 60 2.0 3.0 0.00 0.00 0.00 61 1018.3
20260901155108 88 293 1.0 1.0 0.00 0.00 0.00 61 1018.3
20260901154608 90 171 4.0 5.0 0.00 0.00 0.00 59 1018.3
20260901154103 88 281 1.0 1.0 0.00 0.00 0.00 62 1018.2
20260901153557 86 326 1.0 1.0 0.00 0.00 0.00 64 1018.0
20260901153052 86 284 2.0 2.0 0.00 0.00 0.00 67 1018.1
20260901152547 88 261 2.0 2.0 0.00 0.00 0.00 65 1018.2
20260901152045 86 15 2.0 2.0 0.00 0.00 0.00 66 1018.0
20260901151542 85 313 0.0 0.0 0.00 0.00 0.00 70 1018.2
20260901151041 86 320 1.0 2.0 0.00 0.00 0.00 71 1018.1
20260901150538 84 317 0.0 0.0 0.00 0.00 0.00 74 1018.3
20260901150031 84 295 2.0 2.0 0.00 0.00 0.00 73 1018.3
20260901145524 83 285 1.0 2.0 0.00 0.00 0.00 75 1018.1
20260901145019 82 268 3.0 3.0 0.00 0.00 0.00 77 1018.1
20260901144514 83 226 5.0 5.0 0.00 0.00 0.00 75 1018.3
20260901144009 82 192 3.0 5.0 0.00 0.00 0.00 77 1018.3
20260901143459 82 323 3.0 3.0 0.00 0.00 0.00 80 1018.3
20260901142955 82 288 2.0 2.0 0.00 0.00 0.00 80 1018.3
20260901142450 81 271 2.0 3.0 0.00 0.00 0.00 80 1018.3
20260901141944 81 246 3.0 3.0 0.00 0.00 0.00 81 1018.5
20260901141439 81 306 2.0 2.0 0.00 0.00 0.00 82 1018.3
20260901140934 80 288 3.0 3.0 0.00 0.00 0.00 83 1018.6
20260901140432 80 280 2.0 2.0 0.00 0.00 0.00 83 1018.6
20260901135927 80 296 1.0 2.0 0.00 0.00 0.00 83 1018.4
20260901135421 80 247 2.0 2.0 0.00 0.00 0.00 84 1018.3
20260901134917 80 292 3.0 3.0 0.00 0.00 0.00 84 1018.4
20260901134412 80 260 1.0 2.0 0.00 0.00 0.00 84 1018.4
20260901133912 79 276 1.0 1.0 0.00 0.00 0.00 85 1018.4
20260901133406 78 213 3.0 3.0 0.00 0.00 0.00 86 1018.1
20260901132905 78 254 2.0 2.0 0.00 0.00 0.00 86 1018.2
20260901132359 78 260 2.0 2.0 0.00 0.00 0.00 87 1018.4
20260901131853 78 279 1.0 1.0 0.00 0.00 0.00 87 1018.2
20260901131352 77 266 2.0 2.0 0.00 0.00 0.00 87 1018.1
20260901130848 77 281 0.0 1.0 0.00 0.00 0.00 88 1018.0
20260901130343 77 241 3.0 3.0 0.00 0.00 0.00 88 1017.8
20260901125840 77 266 2.0 2.0 0.00 0.00 0.00 89 1017.9
20260901125334 76 285 1.0 1.0 0.00 0.00 0.00 89 1017.8
20260901124829 76 283 1.0 1.0 0.00 0.00 0.00 90 1017.8
20260901124324 75 291 0.0 1.0 0.00 0.00 0.00 90 1017.7
20260901123824 75 287 1.0 1.0 0.00 0.00 0.00 90 1017.6
20260901123319 75 280 2.0 2.0 0.00 0.00 0.00 90 1017.6
20260901122817 75 279 0.0 1.0 0.00 0.00 0.00 90 1017.5
20260901122312 75 279 1.0 1.0 0.00 0.00 0.00 90 1017.7
20260901121811 75 276 1.0 1.0 0.00 0.00 0.00 90 1017.6
20260901121307 75 274 1.0 1.0 0.00 0.00 0.00 90 1017.4
20260901120807 75 269 2.0 2.0 0.00 0.00 0.00 90 1017.4
20260901120301 75 263 2.0 2.0 0.00 0.00 0.00 90 1017.3
20260901115757 75 279 1.0 1.0 0.00 0.00 0.00 90 1017.4
20260901115252 75 265 1.0 1.0 0.00 0.00 0.00 90 1017.5
20260901114749 75 280 1.0 1.0 0.00 0.00 0.00 90 1017.5
20260901114245 75 284 1.0 1.0 0.00 0.00 0.00 90 1017.4
20260901113742 76 287 1.0 1.0 0.00 0.00 0.00 89 1017.3
20260901113237 76 283 1.0 1.0 0.00 0.00 0.00 89 1017.4
20260901112732 76 244 3.0 3.0 0.00 0.00 0.00 89 1017.3
20260901112232 76 255 3.0 3.0 0.00 0.00 0.00 89 1017.3
20260901111726 76 227 5.0 6.0 0.00 0.00 0.00 89 1017.3
20260901111220 76 233 2.0 2.0 0.00 0.00 0.00 88 1017.2
20260901110714 76 237 3.0 3.0 0.00 0.00 0.00 88 1017.3
20260901110209 76 243 3.0 3.0 0.00 0.00 0.00 88 1017.4
20260901105706 76 274 3.0 3.0 0.00 0.00 0.00 88 1017.2
20260901105205 76 270 3.0 3.0 0.00 0.00 0.00 88 1017.3
20260901104702 76 251 3.0 3.0 0.00 0.00 0.00 88 1017.1
20260901104157 76 249 3.0 5.0 0.00 0.00 0.00 88 1017.0
20260901103656 77 225 3.0 5.0 0.00 0.00 0.00 87 1016.9
20260901103151 77 242 4.0 5.0 0.00 0.00 0.00 87 1017.0
20260901102646 77 244 4.0 5.0 0.00 0.00 0.00 87 1017.3
20260901102145 77 249 6.0 7.0 0.00 0.00 0.00 87 1017.2
20260901101642 77 244 5.0 6.0 0.00 0.00 0.00 86 1017.0
20260901101140 77 242 3.0 3.0 0.00 0.00 0.00 86 1017.1
20260901100635 77 230 5.0 7.0 0.00 0.00 0.00 86 1017.0
20260901100130 77 265 3.0 3.0 0.00 0.00 0.00 86 1017.0
20260901095628 77 221 4.0 5.0 0.00 0.00 0.00 86 1017.2
20260901095126 77 245 6.0 7.0 0.00 0.00 0.00 85 1017.2
20260901094620 77 236 4.0 5.0 0.00 0.00 0.00 85 1017.3
20260901094115 77 229 5.0 6.0 0.00 0.00 0.00 85 1017.1
20260901093610 78 218 4.0 6.0 0.00 0.00 0.00 85 1017.4
20260901093104 78 208 4.0 6.0 0.00 0.00 0.00 84 1017.3
20260901092600 78 216 4.0 6.0 0.00 0.00 0.00 84 1017.2
20260901092056 78 227 7.0 8.0 0.00 0.00 0.00 84 1017.3
20260901091551 78 217 4.0 6.0 0.00 0.00 0.00 83 1017.3
20260901091046 78 216 4.0 5.0 0.00 0.00 0.00 83 1017.7
20260901090545 78 210 5.0 6.0 0.00 0.00 0.00 83 1017.3
20260901090041 78 239 2.0 2.0 0.00 0.00 0.00 83 1017.3
20260901085536 78 241 3.0 3.0 0.00 0.00 0.00 82 1017.2
20260901085033 78 230 7.0 7.0 0.00 0.00 0.00 82 1017.2
20260901084528 78 226 5.0 6.0 0.00 0.00 0.00 82 1017.1
20260901084024 78 246 4.0 5.0 0.00 0.00 0.00 81 1017.1
20260901083518 78 254 4.0 6.0 0.00 0.00 0.00 81 1017.1
20260901083016 79 253 3.0 3.0 0.00 0.00 0.00 81 1017.2
20260901082512 79 249 3.0 3.0 0.00 0.00 0.00 81 1017.1
20260901082007 79 259 3.0 3.0 0.00 0.00 0.00 80 1017.0
20260901081502 79 236 3.0 3.0 0.00 0.00 0.00 80 1017.1
20260901080957 79 191 3.0 3.0 0.00 0.00 0.00 80 1017.2
20260901080455 79 246 4.0 6.0 0.00 0.00 0.00 80 1017.3
20260901075950 79 200 3.0 5.0 0.00 0.00 0.00 80 1017.2
20260901075446 79 222 4.0 5.0 0.00 0.00 0.00 79 1017.1
20260901074945 80 190 7.0 7.0 0.00 0.00 0.00 79 1017.2
20260901074439 80 232 3.0 3.0 0.00 0.00 0.00 79 1017.2
20260901073935 80 238 5.0 6.0 0.00 0.00 0.00 79 1017.4
20260901073431 80 231 3.0 5.0 0.00 0.00 0.00 79 1017.3
20260901072926 80 220 4.0 5.0 0.00 0.00 0.00 78 1017.1
20260901072421 80 215 4.0 6.0 0.00 0.00 0.00 78 1017.2
20260901071916 80 218 5.0 6.0 0.00 0.00 0.00 77 1017.3
20260901071415 80 206 7.0 9.0 0.00 0.00 0.00 77 1017.3
20260901070914 80 236 5.0 6.0 0.00 0.00 0.00 77 1017.2
20260901070410 80 212 4.0 5.0 0.00 0.00 0.00 76 1017.1
20260901065908 81 226 3.0 5.0 0.00 0.00 0.00 76 1017.3
20260901065404 81 220 4.0 5.0 0.00 0.00 0.00 76 1017.4
20260901064859 81 215 6.0 8.0 0.00 0.00 0.00 75 1017.2
20260901064355 81 238 5.0 6.0 0.00 0.00 0.00 75 1017.1
20260901063852 81 217 5.0 6.0 0.00 0.00 0.00 75 1017.0
20260901063348 81 221 4.0 5.0 0.00 0.00 0.00 74 1017.0
20260901062839 82 181 6.0 7.0 0.00 0.00 0.00 74 1017.1
20260901062334 82 178 4.0 5.0 0.00 0.00 0.00 74 1017.0
20260901061829 82 189 6.0 7.0 0.00 0.00 0.00 73 1016.8
20260901061324 82 206 7.0 8.0 0.00 0.00 0.00 73 1017.0
20260901060819 82 195 5.0 6.0 0.00 0.00 0.00 72 1017.0
20260901060315 82 199 5.0 7.0 0.00 0.00 0.00 72 1017.0
20260901055804 82 190 5.0 8.0 0.00 0.00 0.00 72 1016.9
20260901055301 83 188 6.0 7.0 0.00 0.00 0.00 71 1017.1
20260901054758 83 210 7.0 8.0 0.00 0.00 0.00 71 1016.8
20260901054254 83 193 6.0 7.0 0.00 0.00 0.00 71 1016.8
20260901053749 83 194 6.0 8.0 0.00 0.00 0.00 71 1016.9
20260901053244 83 169 6.0 8.0 0.00 0.00 0.00 70 1016.8
20260901052739 83 196 5.0 6.0 0.00 0.00 0.00 70 1016.5
20260901052235 84 179 7.0 8.0 0.00 0.00 0.00 69 1016.7
20260901051734 84 221 7.0 9.0 0.00 0.00 0.00 69 1016.6
20260901051228 84 179 4.0 6.0 0.00 0.00 0.00 68 1016.6
20260901050724 84 200 6.0 7.0 0.00 0.00 0.00 68 1016.6
20260901050219 84 215 6.0 8.0 0.00 0.00 0.00 67 1016.5
20260901045714 84 196 4.0 5.0 0.00 0.00 0.00 66 1016.8
20260901045209 84 204 5.0 5.0 0.00 0.00 0.00 66 1016.7
20260901044704 85 181 7.0 9.0 0.00 0.00 0.00 65 1016.5
20260901044201 85 294 3.0 5.0 0.00 0.00 0.00 65 1016.7
20260901043656 85 194 7.0 7.0 0.00 0.00 0.00 64 1016.7
20260901043151 85 199 6.0 7.0 0.00 0.00 0.00 63 1016.6
20260901042650 85 181 7.0 8.0 0.00 0.00 0.00 63 1016.4